Weather History for Mena, AR

Change the Weather History Date:

Friday, November 8, 2013

  Actual Average (KFSM) Record (KFSM)
Temperature  
Mean Temperature 50 °F -  
Max Temperature 66 °F 61 °F 86 °F (1915)
Min Temperature 35 °F 42 °F 20 °F (1991)
Degree Days  
Heating Degree Days 14    
Moisture  
Dew Point 38 °F    
Average Humidity 47    
Maximum Humidity 100    
Minimum Humidity 28    
Precipitation  
Precipitation 0.00 in - - ()
Sea Level Pressure  
Sea Level Pressure 30.28 in    
Wind  
Wind Speed 1 mph (South)    
Max Wind Speed 8 mph    
Max Gust Speed -    
Visibility 10 miles    
Events      
Averages and records for this station are not official NWS values.
T = Trace of Precipitation, MM = Missing Value Source: NWS Daily Summary

Daily Weather History Graph

Daily Weather History Graph

Search for Another Location

Airport:

Trip Planner

Search our weather history database for the weather conditions in past years. The results will help you decide how hot, cold, wet, or windy it might be!

Date:

Astronomy

Nov. 08, 2013 Rise Set
Actual Time 6:43 AM CST 5:16 PM CST
Civil Twilight 6:17 AM CST 5:43 PM CST
Nautical Twilight 5:47 AM CST 6:13 PM CST
Astronomical Twilight 5:17 AM CST 6:42 PM CST
Moon 11:40 AM CST (11/8) 10:37 PM CST (11/8)
Length of Visible Light 11h 25m
Length of Day
10h 32m
Waxing Crescent, 33% of the Moon is Illuminated
Nov 8
Waxing Crescent
Nov 9
First Quarter
Nov 17
Full
Nov 25
Last Quarter
Dec 2
New

Hourly Weather History & Observations

Time (CST) Temp. Windchill Dew Point Humidity Pressure Visibility Wind Dir Wind Speed Gust Speed Precip Events Conditions
12:15 AM 39.2 °F - - N/A% 30.37 in 10.0 mi Calm Calm - N/A   Clear
12:35 AM 39.2 °F - - N/A% 30.37 in 10.0 mi Calm Calm - N/A   Clear
12:55 AM 37.4 °F - - N/A% 30.37 in 10.0 mi Calm Calm - N/A   Clear
1:15 AM 39.2 °F - - N/A% 30.36 in 10.0 mi Calm Calm - N/A   Clear
1:35 AM 37.4 °F - - N/A% 30.37 in 10.0 mi Calm Calm - N/A   Clear
1:55 AM 37.4 °F - - N/A% 30.36 in 7.0 mi Calm Calm - N/A   Clear
2:15 AM 37.4 °F - - N/A% 30.36 in 10.0 mi Calm Calm - N/A   Clear
2:35 AM 37.4 °F - - N/A% 30.36 in 10.0 mi Calm Calm - N/A   Clear
2:55 AM 37.4 °F 32.8 °F - N/A% 30.35 in 10.0 mi West 5.8 mph - N/A   Clear
3:15 AM 41.0 °F - - N/A% 30.36 in 10.0 mi Calm Calm - N/A   Clear
3:35 AM 39.2 °F - - N/A% 30.35 in 10.0 mi Calm Calm - N/A   Clear
3:55 AM 39.2 °F - - N/A% 30.35 in 10.0 mi Calm Calm - N/A   Clear
4:15 AM 37.4 °F - - N/A% 30.36 in 10.0 mi Calm Calm - N/A   Clear
4:35 AM 37.4 °F - - N/A% 30.36 in 10.0 mi Calm Calm - N/A   Clear
4:55 AM 37.4 °F - - N/A% 30.35 in 10.0 mi Calm Calm - N/A   Clear
5:15 AM 37.4 °F - - N/A% 30.35 in 10.0 mi Calm Calm - N/A   Clear
5:35 AM 37.4 °F - - N/A% 30.35 in 10.0 mi Calm Calm - N/A   Clear
5:55 AM 37.4 °F - - N/A% 30.35 in 10.0 mi Calm Calm - N/A   Clear
6:15 AM 37.4 °F - - N/A% 30.35 in 10.0 mi Calm Calm - N/A   Clear
6:35 AM 37.4 °F - - N/A% 30.35 in 10.0 mi Calm Calm - N/A   Clear
6:55 AM 37.4 °F - - N/A% 30.35 in 7.0 mi Calm Calm - N/A   Clear
7:15 AM 35.6 °F - - N/A% 30.36 in 7.0 mi Calm Calm - N/A   Clear
7:35 AM 37.4 °F - - N/A% 30.36 in 10.0 mi Calm Calm - N/A   Clear
7:55 AM 39.2 °F - - N/A% 30.36 in 10.0 mi Calm Calm - N/A   Clear
8:15 AM 41.0 °F - - N/A% 30.36 in - Calm Calm - N/A   Unknown
8:35 AM 44.6 °F - - N/A% 30.36 in - Calm Calm - N/A   Unknown
8:55 AM 46.4 °F - 46.4 °F 100% 30.37 in - Calm Calm - N/A   Unknown
9:15 AM 50.0 °F - 50.0 °F 100% 30.37 in - Calm Calm - N/A   Unknown
9:35 AM 51.8 °F - 42.8 °F 71% 30.36 in - Calm Calm - N/A   Clear
9:55 AM 53.6 °F - 41.0 °F 62% 30.36 in - Calm Calm - N/A   Clear
10:15 AM 55.4 °F - 41.0 °F 58% 30.35 in 10.0 mi Calm Calm - N/A   Clear
10:35 AM 59.0 °F - 41.0 °F 51% 30.34 in - East 3.5 mph - N/A   Clear
10:55 AM 62.6 °F - 35.6 °F 37% 30.34 in - SE 4.6 mph - N/A   Clear
11:15 AM 62.6 °F - 33.8 °F 34% 30.33 in - South 6.9 mph - N/A   Clear
11:35 AM 64.4 °F - 33.8 °F 32% 30.32 in - South 5.8 mph - N/A   Clear
11:55 AM 64.4 °F - 35.6 °F 34% 30.30 in - Calm Calm - N/A   Clear
12:15 PM 64.4 °F - 33.8 °F 32% 30.29 in - SSE 4.6 mph - N/A   Clear
12:35 PM 64.4 °F - 33.8 °F 32% 30.28 in - SSW 5.8 mph - N/A   Clear
12:55 PM 64.4 °F - 33.8 °F 32% 30.27 in - South 8.1 mph - N/A   Clear
1:15 PM 66.2 °F - 32.0 °F 28% 30.26 in - SSE 4.6 mph - N/A   Clear
1:35 PM 66.2 °F - 33.8 °F 30% 30.24 in - SSE 5.8 mph - N/A   Clear
1:55 PM 66.2 °F - 35.6 °F 32% 30.24 in - South 5.8 mph - N/A   Clear
2:15 PM 66.2 °F - 33.8 °F 30% 30.24 in 10.0 mi SSE 6.9 mph - N/A   Clear
2:35 PM 66.2 °F - 33.8 °F 30% 30.23 in 10.0 mi SSE 5.8 mph - N/A   Clear
2:55 PM 66.2 °F - 33.8 °F 30% 30.23 in 10.0 mi South 6.9 mph - N/A   Clear
3:15 PM 64.4 °F - 35.6 °F 34% 30.22 in 10.0 mi South 6.9 mph - N/A   Clear
3:35 PM 62.6 °F - 35.6 °F 37% 30.22 in 10.0 mi SSE 4.6 mph - N/A   Clear
3:55 PM 62.6 °F - 37.4 °F 39% 30.22 in 10.0 mi SSE 5.8 mph - N/A   Clear
4:15 PM 62.6 °F - 37.4 °F 39% 30.21 in 10.0 mi South 3.5 mph - N/A   Clear
4:35 PM 60.8 °F - 37.4 °F 42% 30.20 in 10.0 mi South 3.5 mph - N/A   Clear
4:55 PM 60.8 °F - 37.4 °F 42% 30.21 in 10.0 mi Calm Calm - N/A   Clear
5:15 PM 60.8 °F - 35.6 °F 39% 30.21 in 10.0 mi South 4.6 mph - N/A   Clear
5:35 PM 59.0 °F - 35.6 °F 42% 30.21 in 10.0 mi Calm Calm - N/A   Clear
5:55 PM 59.0 °F - 35.6 °F 42% 30.21 in 10.0 mi South 3.5 mph - N/A   Clear
6:15 PM 59.0 °F - 37.4 °F 45% 30.20 in 10.0 mi SSE 3.5 mph - N/A   Clear
6:35 PM 59.0 °F - 37.4 °F 45% 30.20 in 10.0 mi Calm Calm - N/A   Clear
6:55 PM 59.0 °F - 37.4 °F 45% 30.20 in 10.0 mi Calm Calm - N/A   Clear
7:15 PM 57.2 °F - 37.4 °F 48% 30.20 in 10.0 mi Calm Calm - N/A   Clear
7:35 PM 57.2 °F - 37.4 °F 48% 30.19 in 10.0 mi Calm Calm - N/A   Clear
7:55 PM 55.4 °F - 35.6 °F 47% 30.18 in 10.0 mi Calm Calm - N/A   Clear
8:15 PM 55.4 °F - 37.4 °F 51% 30.19 in 10.0 mi SSE 5.8 mph - N/A   Clear
8:35 PM 55.4 °F - 37.4 °F 51% 30.18 in 10.0 mi Calm Calm - N/A   Clear
8:55 PM 55.4 °F - 37.4 °F 51% 30.18 in 10.0 mi SE 5.8 mph - N/A   Clear
9:15 PM 55.4 °F - 39.2 °F 54% 30.18 in 10.0 mi Calm Calm - N/A   Clear
9:35 PM 55.4 °F - 41.0 °F 58% 30.18 in 10.0 mi SSE 3.5 mph - N/A   Clear
9:55 PM 55.4 °F - 37.4 °F 51% 30.18 in 10.0 mi SSW 5.8 mph - N/A   Clear
10:15 PM 55.4 °F - 39.2 °F 54% 30.18 in 10.0 mi SSW 5.8 mph - N/A   Clear
10:35 PM 55.4 °F - 41.0 °F 58% 30.18 in 10.0 mi Calm Calm - N/A   Clear
10:55 PM 55.4 °F - 42.8 °F 63% 30.17 in 10.0 mi Calm Calm - N/A   Clear
11:15 PM 55.4 °F - 42.8 °F 63% 30.16 in 10.0 mi WSW 3.5 mph - N/A   Clear
11:35 PM 55.4 °F - 42.8 °F 63% 30.17 in 10.0 mi SW 3.5 mph - N/A   Clear
11:55 PM 55.4 °F - 42.8 °F 63% 30.16 in 10.0 mi SSW 3.5 mph - N/A   Clear